Weather History for Fort Worth, TX

Change the Weather History Date:

Saturday, February 22, 2014

  Actual Average Record
Temperature  
Mean Temperature 62 °F -  
Max Temperature 75 °F 58 °F 80 °F (2007)
Min Temperature 50 °F 39 °F 28 °F (2013)
Degree Days  
Heating Degree Days 2    
Growing Degree Days 12 (Base 50)    
Moisture  
Dew Point 41 °F    
Average Humidity 47    
Maximum Humidity 72    
Minimum Humidity 31    
Precipitation  
Precipitation 0.00 in - - ()
Sea Level Pressure  
Sea Level Pressure 29.89 in    
Wind  
Wind Speed 13 mph (South)    
Max Wind Speed 20 mph    
Max Gust Speed 26 mph    
Visibility 10 miles    
Events      
Averages and records for this station are not official NWS values.
T = Trace of Precipitation, MM = Missing Value Source: NWS Daily Summary

Daily Weather History Graph

Daily Weather History Graph

Search for Another Location

Airport:

Trip Planner

Search our weather history database for the weather conditions in past years. The results will help you decide how hot, cold, wet, or windy it might be!

Date:

Astronomy

Feb. 22, 2014 Rise Set
Actual Time 7:05 AM CST 6:20 PM CST
Civil Twilight 6:40 AM CST 6:45 PM CST
Nautical Twilight 6:11 AM CST 7:14 PM CST
Astronomical Twilight 5:43 AM CST 7:43 PM CST
Moon 12:54 AM CST (2/22) 11:41 AM CST (2/22)
Length of Visible Light 12h 05m
Length of Day
11h 15m
Waning Gibbous, 50% of the Moon is Illuminated
Feb 22
Waning Gibbous
Mar 1
New
Mar 8
First Quarter
Mar 16
Full
Mar 23
Last Quarter

Hourly Weather History & Observations

Time (CST) Temp. Dew Point Humidity Pressure Visibility Wind Dir Wind Speed Gust Speed Precip Events Conditions
12:53 AM 55.0 °F 30.9 °F 40% 29.99 in 10.0 mi South 11.5 mph - N/A   Clear
1:53 AM 55.0 °F 32.0 °F 42% 29.98 in 10.0 mi South 12.7 mph - N/A   Clear
2:53 AM 55.0 °F 28.9 °F 37% 29.96 in 10.0 mi South 15.0 mph - N/A   Clear
3:53 AM 54.0 °F 24.1 °F 31% 29.96 in 10.0 mi South 17.3 mph 24.2 mph N/A   Clear
4:53 AM 52.0 °F 26.1 °F 37% 29.96 in 10.0 mi South 16.1 mph 25.3 mph N/A   Clear
5:53 AM 52.0 °F 25.0 °F 35% 29.96 in 10.0 mi South 13.8 mph - N/A   Clear
6:53 AM 50.0 °F 28.0 °F 43% 29.97 in 10.0 mi South 9.2 mph - N/A   Clear
7:53 AM 50.0 °F 34.0 °F 54% 29.97 in 10.0 mi South 13.8 mph - N/A   Clear
8:53 AM 54.0 °F 37.0 °F 53% 29.97 in 10.0 mi South 15.0 mph - N/A   Clear
9:53 AM 59.0 °F 43.0 °F 55% 29.97 in 10.0 mi SSW 15.0 mph 26.5 mph N/A   Clear
10:53 AM 64.9 °F 45.0 °F 48% 29.95 in 10.0 mi South 19.6 mph 26.5 mph N/A   Clear
11:53 AM 66.0 °F 45.0 °F 47% 29.92 in 10.0 mi South 17.3 mph - N/A   Clear
12:53 PM 69.1 °F 46.0 °F 44% 29.88 in 10.0 mi South 13.8 mph 25.3 mph N/A   Clear
1:53 PM 73.0 °F 46.9 °F 39% 29.83 in 10.0 mi South 17.3 mph 23.0 mph N/A   Clear
2:53 PM 73.9 °F 48.0 °F 40% 29.81 in 10.0 mi SSW 16.1 mph 23.0 mph N/A   Clear
3:53 PM 75.0 °F 48.0 °F 38% 29.79 in 10.0 mi South 12.7 mph - N/A   Clear
4:53 PM 73.9 °F 48.0 °F 40% 29.78 in 10.0 mi South 15.0 mph - N/A   Clear
5:53 PM 72.0 °F 46.9 °F 41% 29.78 in 10.0 mi South 15.0 mph - N/A   Clear
6:53 PM 68.0 °F 46.9 °F 47% 29.80 in 10.0 mi South 10.4 mph - N/A   Clear
7:53 PM 66.9 °F 46.9 °F 49% 29.82 in 10.0 mi South 12.7 mph - N/A   Clear
8:53 PM 64.9 °F 50.0 °F 58% 29.84 in 10.0 mi SSE 8.1 mph - N/A   Clear
9:53 PM 63.0 °F 50.0 °F 63% 29.84 in 10.0 mi SE 9.2 mph - N/A   Clear
10:53 PM 62.1 °F 51.1 °F 67% 29.85 in 10.0 mi SE 8.1 mph - N/A   Clear
11:53 PM 61.0 °F 52.0 °F 72% 29.85 in 10.0 mi SSE 9.2 mph - N/A   Clear